Location: Atherton
(17.2661°S, 145.4859°E)
Time: 00:38:49
(UTC+10:00)

Vanguard 1 - Pass Details

Date: 28 June 2025
Orbit: 649 x 3822 km, 34.2° (Epoch: 17 July)

Event Time Altitude Azimuth Distance (km) Brightness Sun altitude
Rises 17:02:05 0° 304° (NW) 7,928 16.9 10.4°
Reaches altitude 10° 17:07:31 10° 304° (NW) 6,914 17.4 9.2°
Maximum altitude 17:30:40 88° 214° (SW) 3,073 12.7 4.3°
Drops below altitude 10° 17:44:54 10° 122° (ESE) 4,572 12.8 1.3°
Sets 17:47:42 0° 121° (ESE) 5,245 13.1 0.7°
